Powrót do katalogu

STARLINK-5623

AktywnyŁącznośćVLEO
NORAD 55405·PAYLOAD·🇺🇸 United States

Wystrzelony Jan 31, 2023 z Vandenberg Space Force Base

Loading…

Następne Przeloty (najbliższe 24 godziny)

TLE

ŚwieżeSource: CelesTrak SupGP

Epoka: Sep 14, 2026, 21:44 UTC

1 55405C 23014Q   26257.90604167  .00017525  00000+0  14688-2 0  2579
2 55405  70.0001 307.4139 0003578 268.1387 221.9654 14.98316790    12

Śledź STARLINK-5623 w czasie rzeczywistym z AllMySat

Download on the App Store